Home > Weather > Bad Hersfeld > Past weeks

Flag for Germany Weather for the Past 2 Weeks in Bad Hersfeld, Hesse, Germany

Now
50 °F

Passing clouds.


Feels Like: 50 °F
Forecast: 41 / 56 °F
Wind: 1 mph from West

Location: Fritzlar Airport

Current Time: May 2, 2016 at 11:50:05 PM

Latest Report: May 2, 2016 at 10:20 PM


Visibility: N/A

Pressure: 30.09 "Hg

Humidity: 71%

Dew Point: 41 °F

Location of Bad HersfeldLocation

Historic Weather in Bad Hersfeld — Graph

°F

Bad Hersfeld Temperature Yesterday

Maximum temperature yesterday: 63 °F (at 4:20 PM)
Minimum temperature yesterday: 43 °F (at 3:20 AM)
Average temperature yesterday: 52 °F

High & Low Weather Summary for the Past Weeks

 TemperatureHumidityPressure
High68 °F (May 2, 4:20 PM)100% (Apr 18, 4:20 AM)30.45 "Hg (Apr 18, 4:20 AM)
Low28 °F (Apr 24, 3:20 AM)19% (Apr 21, 3:20 PM)29.50 "Hg (Apr 26, 2:20 AM)
Average44 °F68%30.01 "Hg
* Reported Apr 17 10:20 PM — May 2 10:20 PM, Bad Hersfeld, Weather by CustomWeather, © 2016

Note: Actual official high and low records may vary slightly from our data, if they occured in-between our weather recording intervals... More about our weather records

Advertising

Bad Hersfeld Weather History for the Previous 24 Hours

Scroll right to see more
 ConditionsComfort  
Time TempWeatherWind HumidityBarometerVisibility
10:20 PM
Mon, May 2
50 °FPassing clouds.1 mph71%30.09 "HgN/A
9:20 PM54 °FPassing clouds.1 mph63%30.09 "HgN/A
8:20 PM59 °FPassing clouds.2 mph55%30.09 "HgN/A
7:20 PM66 °FPassing clouds.2 mph30%30.09 "HgN/A
6:20 PM68 °FPassing clouds.1 mph28%30.12 "HgN/A
5:20 PM66 °FPassing clouds.5 mph32%30.12 "HgN/A
4:20 PM68 °FPassing clouds.2 mph30%30.15 "HgN/A
3:20 PM64 °FPassing clouds.3 mph32%30.15 "HgN/A
2:20 PM64 °FPassing clouds.5 mph34%30.18 "HgN/A
1:20 PM63 °FPassing clouds.5 mph42%30.21 "HgN/A
12:20 PM61 °FPassing clouds.7 mph39%30.24 "HgN/A
11:20 AM59 °FPassing clouds.2 mph59%30.24 "HgN/A
10:20 AM55 °FPassing clouds.2 mph67%30.27 "HgN/A
9:20 AM52 °FCool.1 mph72%30.27 "HgN/A
8:20 AM45 °FQuite cool.6 mph87%30.27 "HgN/A
6:20 AM41 °FFog.3 mph87%30.30 "HgN/A
5:20 AM41 °FQuite cool.8 mph93%30.30 "HgN/A
4:20 AM43 °FQuite cool.6 mph87%30.30 "HgN/A
3:20 AM45 °FQuite cool.5 mph87%30.30 "HgN/A
2:20 AM46 °FCool.6 mph82%30.30 "HgN/A
1:20 AM46 °FCool.8 mph82%30.30 "HgN/A
12:20 AM46 °FCool.5 mph82%30.27 "HgN/A
11:20 PM
Sun, May 1
52 °FCool.6 mph72%30.27 "HgN/A
Weather by CustomWeather, © 2016

See weather overviewHow to use our weather pages